This is the latest recevied weather packets stored in our database for station/object K6JWN. If no packets are shown the sender has not sent any weather packets the latest 10 day(s).
| Time | Temp. | Humidity | Pressure | Rain* | Wind** | Luminosity | Snow |
|---|---|---|---|---|---|---|---|
| 1777766537 | 20.56° C | 51% | 1009.5 hPa | 0 mm | - | - | - |
| 1777765937 | 20.56° C | 50% | 1009.5 hPa | 0 mm | - | - | - |
| 1777765337 | 21.11° C | 50% | 1009.7 hPa | 0 mm | - | - | - |
| 1777764737 | 21.11° C | 49% | 1009.6 hPa | 0 mm | - | - | - |
| 1777764137 | 21.11° C | 47% | 1009.8 hPa | 0 mm | - | - | - |
| 1777763537 | 21.67° C | 48% | 1009.7 hPa | 0 mm | - | - | - |
| 1777762937 | 21.67° C | 48% | 1010 hPa | 0 mm | - | - | - |
| 1777762337 | 21.11° C | 48% | 1010.1 hPa | 0 mm | - | - | - |
| 1777761737 | 21.67° C | 49% | 1010.2 hPa | 0 mm | - | - | - |
| 1777761137 | 21.67° C | 48% | 1010.3 hPa | 0 mm | - | - | - |
| 1777760537 | 21.67° C | 49% | 1010.5 hPa | 0 mm | - | - | - |
| 1777759937 | 21.67° C | 48% | 1010.7 hPa | 0 mm | - | - | - |
| 1777759337 | 21.67° C | 49% | 1010.8 hPa | 0 mm | - | - | - |
| 1777758737 | 21.67° C | 47% | 1010.9 hPa | 0 mm | - | - | - |
| 1777758137 | 21.67° C | 49% | 1011.1 hPa | 0 mm | - | - | - |
| 1777757537 | 20.56° C | 50% | 1011.2 hPa | 0 mm | - | - | - |
| 1777756937 | 20° C | 49% | 1011.4 hPa | 0 mm | - | - | - |
| 1777756337 | 20° C | 50% | 1011.4 hPa | 0 mm | - | - | - |
| 1777755737 | 20.56° C | 51% | 1011.6 hPa | 0 mm | - | - | - |
| 1777755137 | 20.56° C | 53% | 1011.5 hPa | 0 mm | - | - | - |
| 1777754537 | 20.56° C | 51% | 1011.7 hPa | 0 mm | - | - | - |
| 1777753937 | 20° C | 53% | 1011.7 hPa | 0 mm | - | - | - |
| 1777753337 | 19.44° C | 54% | 1011.9 hPa | 0 mm | - | - | - |
| 1777752137 | 18.33° C | 54% | 1012.1 hPa | 0 mm | - | - | - |
| 1777751537 | 18.33° C | 53% | 1012.1 hPa | 0 mm | - | - | - |
* Rain latest hour (hover to see other rain measurements)
** Current wind speed in m/s (hover to see current wind gust speed)